GFSSW_2pvu_pres_147.txt.gz
Presure
136 161 164 162 168 154 144 164 156 163 157 145 164 158 171 174 174 169 151 166 162 196 187 203 203 174 171 177 218 178 220 205 230 212 208 222 191 166 165 171 165 160 166 154 186
142 156 164 161 153 146 155 151 151 154 151 164 169 168 164 163 157 152 185 161 147 190 171 204 152 206 190 223 209 215 195 230 175 200 226 215 231 172 179 168 162 164 164 170 136
159 127 153 161 122 133 152 143 161 163 138 133 170 166 169 167 164 174 173 162 182 146 197 188 196 184 151 230 222 186 236 138 112 272 221 229 226 252 179 160 171 169 159 165 169
155 151 144 160 153 139 160 154 151 135 161 159 123 155 172 173 170 163 163 179 180 154 150 151 153 204 164 237 242 187 175 272 177 187 256 221 223 241 265 180 159 170 169 157 169
146 153 160 162 143 154 165 132 116 149 144 152 156 136 169 158 157 170 189 185 193 191 167 159 187 154 198 183 157 213 243 277 310 323 143 225 228 231 203 258 181 162 170 170 160
155 147 162 160 151 154 132 145 153 152 162 136 155 168 145 165 149 182 156 185 198 166 157 208 186 195 275 235 165 293 155 205 279 280 236 236 227 241 247 260 202 187 167 171 168
154 146 166 139 148 155 151 109 162 153 145 155 170 172 171 160 169 177 178 139 182 197 122 121 130 133 313 131 230 135 359 358 339 328 83 249 227 299 270 257 285 200 176 164 173
151 152 161 159 146 147 157 161 154 153 155 159 166 169 158 161 174 187 138 135 195 153 216 277 274 407 393 384 378 139 202 363 101 330 321 302 239 253 76 185 266 291 197 182 175
153 160 162 156 152 160 147 162 145 149 152 154 156 167 173 163 177 173 184 195 197 226 262 290 397 407 384 377 378 364 349 357 343 321 313 184 229 229 259 105 79 89 210 176 159
155 133 162 159 153 154 141 158 151 152 152 163 168 153 168 176 176 176 185 193 202 237 293 298 416 401 394 390 333 338 366 346 209 141 286 322 63 215 268 241 226 206 188 167 184
145 161 143 143 160 158 163 123 144 150 144 147 156 173 171 180 168 179 183 194 231 275 273 427 408 390 366 348 336 331 331 322 336 325 139 331 322 301 269 269 246 180 288 217 203
155 163 145 159 160 162 165 163 162 164 148 152 165 162 175 181 178 190 191 212 243 275 433 403 271 379 370 346 340 336 319 330 318 322 332 305 308 303 283 281 253 268 261 298 211
172 157 146 159 160 161 159 169 150 165 142 166 168 164 173 176 170 188 190 224 248 399 428 400 387 379 366 353 340 323 331 330 326 320 239 278 113 187 290 232 244 258 262 283 222
163 136 163 154 143 162 157 169 154 166 150 164 157 178 178 165 187 179 217 224 270 377 418 396 382 372 361 351 343 331 322 319 321 322 316 328 270 312 279 287 272 245 258 271 287
163 154 163 163 161 155 154 160 163 153 157 151 178 169 181 192 186 190 225 231 261 378 430 401 385 366 360 358 345 329 327 327 327 315 321 319 332 308 304 294 282 262 259 186 273
181 169 155 162 168 166 151 164 154 141 165 174 176 174 185 178 190 194 228 227 245 421 413 405 401 385 361 359 353 345 334 326 209 328 324 315 327 311 304 217 293 271 261 252 266
164 170 167 173 162 140 169 132 151 148 174 174 173 180 184 184 204 205 210 226 245 436 416 416 401 377 368 368 362 358 344 336 327 332 68 323 330 318 293 295 270 66 188 257 164
169 170 172 133 172 166 160 160 149 153 140 179 169 179 181 177 196 206 219 234 246 422 406 421 397 387 380 373 366 360 361 350 349 338 333 311 89 326 295 146 294 277 70 96 252
140 151 166 131 163 143 169 160 170 154 175 162 165 174 193 183 196 212 212 232 249 414 415 408 401 391 387 386 377 368 364 358 367 123 343 224 343 80 288 290 139 277 258 261 230
180 139 131 152 143 163 161 154 173 167 181 186 158 178 186 190 199 211 224 234 238 417 389 353 372 397 386 379 371 370 366 364 371 382 388 71 346 326 77 284 298 279 282 269 259
172 168 163 160 177 138 164 181 164 180 159 164 160 174 210 197 200 215 228 231 240 417 378 357 381 355 390 382 376 370 166 368 383 418 434 448 226 335 239 244 289 299 267 281 268
157 146 137 136 167 164 174 167 178 164 190 159 181 169 201 199 194 220 223 231 246 388 379 343 344 334 337 384 374 376 364 376 401 431 437 440 466 87 314 194 288 292 293 286 266
168 159 156 151 164 172 140 167 179 184 160 174 158 171 194 200 190 217 224 230 250 362 370 335 313 361 322 390 403 375 390 404 408 436 425 140 75 284 319 306 302 285 292 287 282
123 176 135 142 166 174 174 180 181 192 160 194 159 179 207 190 208 224 217 229 251 385 392 347 316 313 315 387 389 397 377 390 415 415 401 391 419 385 332 316 104 298 288 287 284
174 178 149 139 179 156 171 183 189 171 196 204 160 197 201 206 211 220 227 239 258 390 364 343 319 314 315 345 384 385 394 410 417 403 392 375 390 364 338 214 136 298 287 288 283
183 158 148 160 189 146 149 186 166 177 187 160 173 202 215 203 207 216 216 240 254 388 368 342 316 322 303 393 382 382 387 417 404 392 384 367 365 392 373 326 321 289 150 289 286
135 197 181 138 151 136 170 193 153 201 195 187 188 182 205 212 211 223 215 248 337 386 370 346 325 374 303 358 386 391 389 405 386 377 375 369 365 153 365 338 319 305 295 290 291

GFSSW_2pvu_pres_150.txt.gz
Presure
157 167 159 161 157 153 149 170 141 156 164 151 150 159 151 163 159 148 171 165 144 159 174 191 169 167 190 179 167 220 158 157 174 182 181 191 196 196 213 237 174 163 148 158 160
157 160 151 158 157 154 155 131 162 155 151 133 151 166 138 163 149 169 146 172 166 161 136 144 178 189 188 186 206 164 209 170 175 128 188 188 189 203 222 230 221 173 174 149 160
150 160 150 160 155 159 143 161 133 167 155 164 147 162 166 132 166 141 169 167 162 178 182 174 183 185 195 200 204 211 206 196 234 183 260 181 192 206 205 233 241 242 179 169 162
135 145 153 159 147 157 158 130 149 149 122 162 133 148 160 161 156 172 159 165 180 174 173 166 181 189 186 195 209 167 236 155 274 174 196 184 187 194 230 215 230 243 198 172 173
161 163 154 165 155 159 156 148 156 160 159 146 150 155 156 138 157 143 170 171 150 173 177 172 187 196 184 205 223 237 276 276 191 135 217 187 172 181 182 241 224 243 258 181 173
168 163 166 156 149 162 157 162 144 159 156 166 151 150 147 149 142 160 166 160 181 172 185 178 185 188 163 205 188 291 166 381 284 302 147 226 164 222 169 190 226 234 249 266 149
161 165 157 152 156 143 168 142 152 144 156 163 149 145 158 170 163 160 167 178 159 179 172 192 192 201 234 314 428 413 423 415 152 392 380 333 178 76 199 85 259 212 239 256 219
170 153 154 151 155 144 152 154 150 163 168 158 166 155 166 149 153 158 179 170 178 183 171 182 193 212 258 477 415 446 400 396 397 378 381 367 350 339 133 168 115 273 250 255 272
167 177 182 162 148 152 149 161 152 161 161 158 165 141 154 153 155 173 172 161 161 174 183 186 203 230 352 438 428 392 406 364 379 360 357 367 165 207 341 311 302 268 210 252 256
170 171 148 187 155 120 163 157 160 158 137 165 161 161 154 162 170 172 170 162 170 181 180 190 214 249 466 438 421 404 358 359 331 353 344 356 140 65 336 316 286 281 243 211 255
166 173 170 123 166 160 161 167 150 158 159 153 155 151 154 166 171 163 170 164 176 190 179 201 219 264 434 392 396 388 358 377 331 318 338 338 343 310 259 327 298 280 74 251 245
174 182 163 170 165 167 171 159 168 160 151 161 141 149 152 154 172 162 155 160 185 178 186 210 243 293 421 400 390 369 368 351 331 311 313 321 334 316 310 323 68 289 272 91 87
179 162 172 180 181 175 166 173 157 168 162 158 134 150 170 164 165 179 155 180 191 179 188 219 254 424 432 406 399 376 366 351 347 324 323 330 61 322 309 317 311 191 252 278 231
181 181 171 172 174 179 182 141 132 157 156 153 160 165 153 161 173 163 159 189 170 188 188 222 261 437 422 414 390 383 358 359 335 343 326 332 312 317 314 239 145 176 277 244 238
177 178 136 170 175 176 162 168 161 155 151 159 164 172 163 171 182 171 188 183 189 193 215 238 290 440 429 417 396 383 369 356 351 346 327 321 333 311 97 300 308 159 250 256 245
188 185 182 182 175 161 166 141 139 150 160 166 170 160 170 162 184 161 187 169 189 199 225 239 291 447 434 427 407 380 372 360 356 349 336 329 327 308 311 303 301 302 232 249 225
171 178 181 170 142 181 145 157 162 165 167 158 158 156 177 183 160 200 160 174 198 193 228 243 354 429 424 426 412 396 382 379 359 351 344 332 342 309 313 305 300 305 284 166 80
183 186 169 124 167 161 144 146 151 163 168 145 162 163 177 179 148 191 188 168 203 215 233 283 352 426 384 354 346 408 388 380 393 374 354 69 344 67 313 305 309 303 300 288 219
197 157 170 148 177 155 171 145 164 160 170 170 183 168 182 186 171 157 182 180 202 216 229 249 369 420 402 347 368 339 412 398 394 384 401 70 348 330 265 299 301 300 295 287 281
192 195 138 122 155 131 166 137 158 173 171 173 169 171 170 200 169 156 189 187 194 219 222 244 321 415 373 355 326 423 336 395 401 402 399 336 101 70 321 317 296 300 293 289 283
154 141 155 170 193 170 174 175 159 181 161 149 181 169 194 169 183 173 203 203 191 215 228 259 383 388 402 350 331 310 339 401 398 396 403 421 419 333 320 311 303 80 297 292 287
127 179 150 192 179 135 154 162 182 152 171 139 184 160 190 177 153 201 205 203 215 216 233 282 370 401 379 353 330 327 312 369 394 392 401 408 448 387 140 308 319 303 158 294 287
181 151 170 166 170 194 235 209 184 148 186 196 185 178 178 157 191 174 171 198 213 217 236 279 356 383 371 365 333 329 320 383 403 393 424 418 463 439 434 320 305 303 130 277 297
164 165 140 169 177 245 213 199 156 147 137 186 151 181 188 164 165 194 164 195 209 217 236 256 414 381 377 361 340 389 313 390 393 402 415 464 435 417 437 275 290 314 297 300 96
192 189 165 114 137 168 166 184 128 183 183 140 200 196 185 188 168 168 195 215 216 239 258 253 405 416 394 361 348 348 382 372 389 391 434 402 407 398 404 269 317 310 296 297 295
125 162 187 123 191 156 165 149 186 177 181 187 200 208 154 190 187 192 219 209 221 241 286 256 353 383 382 365 360 371 371 370 383 397 427 401 388 389 392 389 338 314 304 85 296
140 176 155 156 179 170 194 187 155 145 196 169 166 175 207 199 198 210 180 219 241 228 296 280 421 388 383 387 373 403 379 360 376 393 398 396 401 386 385 375 385 326 317 261 297

GFSSW_2pvu_pres_156.txt.gz
Presure
173 157 157 172 167 157 154 159 163 162 154 163 154 164 140 161 171 143 166 147 162 163 156 146 152 170 152 143 167 180 184 164 194 204 180 194 174 166 224 171 203 187 211 186 144
158 168 168 161 157 160 162 142 149 153 153 147 164 149 163 158 152 118 151 149 160 159 169 160 156 172 173 179 179 179 154 173 166 151 172 175 204 167 170 194 177 219 188 213 202
173 177 160 154 156 160 152 156 162 166 151 155 165 163 154 162 164 162 134 154 164 161 168 142 170 153 177 170 140 178 166 175 181 183 195 201 191 200 200 147 215 187 214 171 192
174 156 153 144 160 155 156 167 170 171 171 161 164 170 158 122 154 161 156 146 161 165 161 164 162 175 161 169 131 157 168 184 168 193 190 199 212 219 215 223 187 183 185 223 209
143 155 146 153 150 162 164 170 167 169 152 155 156 145 163 167 150 162 158 153 162 161 160 166 168 158 170 169 178 168 173 168 184 158 190 201 217 216 236 247 241 282 182 189 281
162 159 166 171 170 178 179 180 158 167 170 160 186 155 185 162 156 166 150 164 167 154 167 172 161 171 161 174 171 183 180 185 179 183 199 210 209 232 474 355 459 439 349 307 285
163 155 158 160 170 173 176 188 183 174 171 172 172 169 175 166 178 164 162 173 157 168 174 170 166 168 176 182 178 159 198 189 180 196 196 212 238 469 345 436 369 423 420 346 311
158 160 164 169 162 166 168 169 175 175 177 146 173 132 169 179 170 178 175 163 168 178 161 161 168 175 180 177 161 170 176 177 192 193 204 480 478 450 422 396 415 131 260 399 314
179 177 159 167 169 168 176 169 145 133 146 173 179 178 178 181 176 178 162 161 179 164 166 168 170 185 172 180 168 176 173 189 184 207 471 443 424 423 410 400 393 398 175 394 313
177 178 178 176 175 178 179 172 183 177 170 178 169 178 181 162 172 162 170 174 165 164 161 171 177 181 180 161 174 170 179 183 196 485 464 431 409 405 379 366 207 357 378 362 288
185 186 188 196 182 189 198 193 190 177 183 174 174 179 168 202 153 164 168 167 166 160 161 179 196 179 158 169 163 175 175 188 292 475 464 431 397 380 383 349 141 351 63 362 354
206 206 201 193 191 175 128 172 181 177 174 182 180 168 171 166 158 169 164 175 161 180 172 194 174 157 159 176 164 200 185 214 402 447 399 420 384 382 367 363 277 334 362 363 336
199 180 197 210 207 204 193 184 181 183 186 176 168 178 168 154 170 163 168 169 186 201 192 151 155 174 169 158 192 174 206 303 481 464 375 411 382 384 346 342 342 337 304 347 348
135 270 231 148 199 206 199 187 191 182 177 185 183 160 159 187 168 163 170 166 180 191 156 167 182 170 165 161 174 184 200 272 451 454 364 423 373 378 359 336 341 326 335 187 336
311 303 314 333 153 218 182 196 155 177 165 188 187 164 185 139 163 192 238 178 189 195 178 157 169 164 187 177 182 233 308 336 446 445 375 342 397 379 350 344 337 323 325 323 339
216 275 246 208 208 168 190 150 177 185 163 169 168 171 168 192 205 230 186 175 151 185 157 159 190 156 167 177 233 231 233 338 414 437 386 342 411 382 357 345 336 319 307 322 317
244 232 242 212 163 196 177 133 171 173 182 171 165 178 191 167 182 182 167 170 166 168 170 179 173 183 180 189 189 237 253 334 291 419 390 361 326 445 367 351 334 322 306 312 311
220 220 150 207 206 212 201 158 210 196 158 136 190 199 188 158 180 139 176 162 156 184 177 173 162 179 187 233 240 247 304 331 324 437 425 364 334 305 441 360 332 325 315 306 314
140 126 149 205 193 151 220 206 156 182 161 172 157 158 179 212 145 133 145 169 188 167 188 206 193 216 219 224 226 262 299 327 350 435 421 393 343 427 434 388 348 337 326 308 311
152 170 213 153 146 162 180 182 200 183 181 131 170 169 142 225 156 183 180 171 168 165 185 186 175 189 180 240 254 308 301 326 363 417 424 408 372 399 333 438 372 346 229 321 314
212 175 146 187 168 169 166 194 160 187 151 197 172 162 147 203 185 171 205 202 177 184 199 195 191 184 242 226 255 304 301 326 306 436 422 415 287 411 425 440 453 366 284 132 318
101 202 166 145 156 198 162 141 168 149 172 186 171 152 206 193 149 171 182 206 163 198 198 196 179 228 224 234 313 302 301 329 289 380 407 409 424 400 397 261 100 103 97 332 334
135 148 140 192 167 192 125 188 136 192 125 206 137 188 186 207 188 178 182 182 177 181 191 215 209 238 230 235 314 302 306 329 265 371 404 427 406 404 409 410 455 475 452 83 347
138 169 173 157 140 154 184 178 194 148 138 209 178 131 192 155 170 162 174 199 176 221 176 196 215 250 235 274 318 302 312 334 295 406 388 403 404 391 215 401 268 442 465 355 325
138 130 156 175 155 150 170 142 201 163 210 141 139 155 170 152 213 154 209 204 190 166 218 190 207 244 241 281 319 305 317 329 277 410 428 392 403 395 398 401 415 422 429 385 344
132 140 195 135 186 216 127 142 193 181 199 137 132 165 143 179 135 134 201 211 202 193 219 225 247 208 287 296 318 309 319 326 391 432 414 398 394 397 397 394 403 404 412 413 87
141 132 136 135 185 136 130 184 145 115 199 134 158 199 153 182 170 193 161 199 208 216 200 237 209 230 231 295 322 318 320 325 401 423 414 401 394 396 397 386 397 394 405 402 348

GFSSW_2pvu_pres_159.txt.gz
Presure
169 155 154 159 167 174 158 154 157 161 153 159 149 163 160 164 158 168 157 170 156 141 155 157 168 162 152 169 150 168 154 177 161 179 154 183 176 197 180 202 174 161 153 183 210
168 162 167 146 163 169 168 164 158 152 158 151 161 162 154 162 168 150 166 165 165 164 173 154 173 151 171 162 169 166 172 170 179 167 190 159 188 164 178 176 200 182 154 183 169
165 161 159 162 144 156 153 152 158 153 168 169 165 157 168 158 169 174 164 164 159 121 162 162 171 171 165 169 170 173 170 174 175 178 188 166 175 173 148 172 176 196 192 212 207
168 157 161 164 170 159 152 151 154 161 161 162 162 169 170 158 161 149 166 165 124 159 174 162 162 174 161 166 179 160 168 171 174 178 196 190 197 198 162 205 167 198 178 209 192
150 147 150 143 156 149 154 163 168 173 164 166 175 168 154 133 159 150 168 178 163 166 174 154 165 165 164 174 167 162 168 171 184 185 194 186 186 183 195 201 148 209 215 201 181
167 153 136 158 164 168 163 156 163 169 170 177 186 174 179 173 166 168 174 174 155 171 163 170 171 166 171 164 158 167 170 179 183 183 182 184 188 196 216 191 190 193 193 210 259
156 170 164 179 170 154 177 161 160 169 172 171 179 175 172 175 177 163 176 177 181 183 175 179 163 177 159 161 164 180 181 184 179 183 173 179 197 185 218 204 210 74 486 477 461
173 177 173 171 159 167 174 178 167 172 177 169 170 172 182 176 173 181 178 180 177 173 159 168 173 163 166 160 167 188 177 178 187 177 183 187 192 215 201 216 254 463 467 473 467
186 183 178 178 175 177 185 179 180 188 178 180 177 190 185 173 178 172 179 178 156 159 163 168 170 155 171 181 188 182 175 172 178 179 179 189 190 195 456 413 459 441 453 417 419
197 242 200 199 204 189 187 187 187 176 191 180 192 196 188 185 173 186 175 160 169 161 168 166 164 186 185 186 189 172 170 183 161 181 189 192 290 219 259 467 430 424 403 302 372
206 205 206 221 193 184 203 183 198 196 194 194 177 183 175 135 186 170 177 174 160 176 161 166 192 173 183 194 174 168 171 162 178 183 191 195 206 485 302 391 408 396 388 386 388
203 183 203 217 214 209 208 206 197 203 184 187 203 181 190 186 175 183 161 168 187 163 178 232 189 180 182 157 182 175 164 176 187 191 195 235 348 473 463 418 407 384 204 318 150
272 236 154 314 191 261 192 199 206 191 218 166 188 183 185 178 159 162 176 161 174 199 198 184 183 145 157 187 179 162 166 194 212 190 275 324 349 446 429 381 399 374 367 276 172
228 199 200 210 307 307 202 289 196 205 219 191 159 194 182 167 161 171 180 187 187 197 177 197 169 148 173 176 178 163 181 178 250 210 331 312 384 429 394 374 408 376 347 344 95
222 213 280 300 231 297 285 303 234 212 198 204 204 167 159 198 170 154 193 138 155 167 200 209 159 170 168 187 169 195 210 217 248 334 330 337 344 414 401 369 347 384 348 349 330
290 297 299 294 238 266 250 287 197 196 201 154 183 199 178 137 169 178 177 148 174 199 206 175 174 177 180 166 188 197 189 209 220 340 324 347 365 478 415 372 353 396 368 342 328
289 220 238 218 216 181 166 208 193 160 203 201 164 129 172 135 176 171 188 147 231 204 177 172 151 178 167 168 176 218 238 257 277 338 326 343 358 397 416 381 354 328 379 343 324
266 204 207 257 218 223 198 139 150 162 151 212 164 172 151 158 161 198 176 176 204 198 176 162 171 165 156 172 177 183 180 233 254 337 331 334 355 386 430 415 360 337 394 347 329
234 205 199 204 164 127 206 148 160 153 184 183 191 173 182 186 187 164 199 203 168 168 182 189 173 174 158 171 185 199 195 252 250 336 345 343 368 445 447 437 384 363 327 360 326
219 154 133 143 206 209 152 181 174 147 200 201 160 114 178 139 145 206 181 200 184 155 156 165 166 159 207 190 212 243 254 268 257 338 332 340 338 412 434 427 414 404 340 390 318
199 179 136 149 138 153 206 153 168 165 144 176 149 193 123 183 214 197 138 151 157 172 197 189 176 187 173 193 201 246 261 265 265 334 324 340 368 428 431 414 421 431 417 414 335
146 134 136 124 189 165 150 190 138 152 185 132 198 147 183 210 139 191 181 205 159 189 169 185 211 171 203 215 245 248 263 278 266 329 329 339 366 417 428 408 425 427 441 326 402
128 196 196 130 134 195 159 133 196 168 187 138 171 175 208 132 141 162 193 174 164 173 193 209 178 214 181 180 245 200 253 245 306 338 324 338 354 425 421 421 426 412 415 474 482
198 133 202 150 127 167 202 133 202 188 159 166 210 142 153 144 141 150 154 141 165 197 205 187 202 219 201 241 187 255 258 246 300 336 325 338 384 440 416 417 415 414 409 450 435
143 137 149 141 138 142 170 190 137 191 144 151 129 138 205 118 144 138 160 120 192 180 165 189 184 200 217 250 184 239 264 249 337 332 326 343 359 444 419 412 405 404 403 432 454
133 111 137 197 185 139 159 124 203 205 183 118 148 202 153 154 172 180 124 126 148 196 219 178 213 215 244 238 235 252 280 326 339 331 328 342 350 420 410 410 409 407 396 422 435
195 208 205 116 144 139 193 186 140 189 129 145 139 172 151 129 140 151 150 143 140 146 157 177 224 188 208 235 220 252 256 333 343 330 333 335 350 430 419 414 409 405 399 414 420